HAZ3630 ZPJH-ZGGG

Flight info

Callsign HAZ3630
Flight time 2h 2m
Altitude 37100
Route BIDRU7W BIDRU A581 SGM A599 GYA GYA8
Aircraft A320/M-SDE3FGHIRWY/LB1

Departure

Time 2026-05-06 00:14
Airport Xishuangbanna Gasa International Airport (ZPJH)

Arrival

Time 2026-05-06 02:16
Airport Guangzhou Baiyun International Airport (ZGGG)
Time Latitude Longitude Altitude Speed Heading
2026-05-05 23:34 21.97676 100.76542 1831 ft 0 kts 339°
2026-05-06 00:02 21.97666 100.76546 1832 ft 3 kts 338°
2026-05-06 00:03 21.97647 100.76555 1830 ft 3 kts 331°
2026-05-06 00:03 21.97630 100.76566 1830 ft 3 kts 313°
2026-05-06 00:03 21.97620 100.76582 1829 ft 3 kts 265°
2026-05-06 00:03 21.97621 100.76589 1830 ft 0 kts 249°
2026-05-06 00:06 21.97621 100.76588 1830 ft 1 kts 249°
2026-05-06 00:06 21.97606 100.76544 1829 ft 7 kts 251°
2026-05-06 00:06 21.97590 100.76494 1830 ft 7 kts 251°
2026-05-06 00:06 21.97574 100.76446 1830 ft 7 kts 251°
2026-05-06 00:07 21.97558 100.76400 1830 ft 6 kts 237°
2026-05-06 00:07 21.97521 100.76383 1829 ft 6 kts 181°
2026-05-06 00:07 21.97487 100.76398 1832 ft 5 kts 148°
2026-05-06 00:07 21.97444 100.76421 1831 ft 7 kts 159°
2026-05-06 00:08 21.97396 100.76438 1828 ft 7 kts 162°
2026-05-06 00:08 21.97350 100.76456 1827 ft 7 kts 158°
2026-05-06 00:08 21.97302 100.76475 1826 ft 8 kts 160°
2026-05-06 00:08 21.97250 100.76493 1826 ft 8 kts 163°
2026-05-06 00:09 21.97196 100.76512 1832 ft 8 kts 161°
2026-05-06 00:09 21.97142 100.76531 1832 ft 8 kts 162°
2026-05-06 00:09 21.97071 100.76557 1830 ft 12 kts 162°
2026-05-06 00:09 21.96992 100.76540 1829 ft 13 kts 232°
2026-05-06 00:10 21.96951 100.76447 1831 ft 15 kts 225°
2026-05-06 00:10 21.96847 100.76460 1829 ft 18 kts 158°
2026-05-06 00:10 21.96716 100.76512 1827 ft 22 kts 161°
2026-05-06 00:10 21.96561 100.76570 1827 ft 26 kts 160°
2026-05-06 00:11 21.96462 100.76627 1828 ft 8 kts 182°
2026-05-06 00:11 21.96454 100.76611 1827 ft 2 kts 268°
2026-05-06 00:11 21.96464 100.76600 1828 ft 4 kts 333°
2026-05-06 00:11 21.96488 100.76595 1823 ft 3 kts 348°
2026-05-06 00:12 21.96505 100.76590 1822 ft 2 kts 342°
2026-05-06 00:12 21.96506 100.76589 1822 ft 0 kts 342°
2026-05-06 00:13 21.96637 100.76542 1828 ft 63 kts 340°
2026-05-06 00:13 21.97339 100.76275 1832 ft 148 kts 340°
2026-05-06 00:13 21.98487 100.75825 2076 ft 192 kts 339°
2026-05-06 00:14 21.99829 100.75254 2660 ft 220 kts 338°
2026-05-06 00:14 22.01327 100.74653 3364 ft 246 kts 340°
2026-05-06 00:14 22.03034 100.74062 4226 ft 266 kts 344°
2026-05-06 00:14 22.04866 100.73572 5326 ft 276 kts 347°
2026-05-06 00:15 22.06800 100.73592 6518 ft 285 kts 11°
2026-05-06 00:15 22.08686 100.74324 7714 ft 291 kts 22°
2026-05-06 00:15 22.10501 100.75343 8869 ft 297 kts 26°
2026-05-06 00:15 22.12314 100.76452 9984 ft 302 kts 25°
2026-05-06 00:16 22.14211 100.77587 10617 ft 324 kts 24°
2026-05-06 00:16 22.16288 100.78757 11128 ft 349 kts 23°
2026-05-06 00:16 22.18514 100.79943 11828 ft 363 kts 22°
2026-05-06 00:16 22.20818 100.81120 12721 ft 370 kts 22°
2026-05-06 00:17 22.23174 100.82296 13617 ft 376 kts 21°
2026-05-06 00:17 22.25571 100.83479 14393 ft 382 kts 21°
2026-05-06 00:17 22.27181 100.84272 14929 ft 386 kts 21°
2026-05-06 00:17 22.29633 100.85484 15719 ft 391 kts 21°
2026-05-06 00:18 22.32122 100.86719 16497 ft 396 kts 21°
2026-05-06 00:18 22.34636 100.87971 17268 ft 401 kts 21°
2026-05-06 00:18 22.37186 100.89248 18026 ft 406 kts 22°
2026-05-06 00:18 22.39761 100.90539 18691 ft 411 kts 22°
2026-05-06 00:19 22.42369 100.91846 19350 ft 415 kts 22°
2026-05-06 00:19 22.45048 100.93016 19993 ft 415 kts 14°
2026-05-06 00:19 22.47862 100.93684 20635 ft 415 kts
2026-05-06 00:19 22.50744 100.94028 21261 ft 418 kts
2026-05-06 00:20 22.53652 100.94368 21910 ft 421 kts
2026-05-06 00:20 22.56578 100.94710 22530 ft 425 kts
2026-05-06 00:20 22.59488 100.95049 23116 ft 428 kts
2026-05-06 00:20 22.62462 100.95394 23662 ft 432 kts
2026-05-06 00:21 22.65461 100.95743 24129 ft 435 kts
2026-05-06 00:21 22.68485 100.96106 24615 ft 439 kts
2026-05-06 00:21 22.71481 100.96840 25093 ft 445 kts 15°
2026-05-06 00:21 22.74358 100.98140 25561 ft 451 kts 25°
2026-05-06 00:22 22.77084 100.99862 26026 ft 455 kts 28°
2026-05-06 00:22 22.79810 101.01627 26493 ft 458 kts 28°
2026-05-06 00:22 22.82560 101.03407 26948 ft 462 kts 28°
2026-05-06 00:22 22.85329 101.05194 27395 ft 465 kts 28°
2026-05-06 00:23 22.88119 101.06991 27855 ft 468 kts 28°
2026-05-06 00:23 22.90930 101.08797 28306 ft 471 kts 28°
2026-05-06 00:23 22.93761 101.10616 28724 ft 475 kts 28°
2026-05-06 00:23 22.96609 101.12450 29148 ft 478 kts 28°
2026-05-06 00:24 22.99473 101.14299 29563 ft 481 kts 28°
2026-05-06 00:24 23.02357 101.16163 29956 ft 484 kts 28°
2026-05-06 00:24 23.05262 101.18038 30290 ft 487 kts 27°
2026-05-06 00:24 23.08185 101.19925 30614 ft 490 kts 27°
2026-05-06 00:25 23.11125 101.21825 30946 ft 493 kts 27°
2026-05-06 00:25 23.14073 101.23734 31368 ft 493 kts 27°
2026-05-06 00:25 23.17011 101.25639 31855 ft 492 kts 27°
2026-05-06 00:25 23.19909 101.27519 32348 ft 491 kts 27°
2026-05-06 00:26 23.22839 101.29419 32844 ft 490 kts 26°
2026-05-06 00:26 23.25756 101.31312 33307 ft 489 kts 26°
2026-05-06 00:26 23.28677 101.33207 33805 ft 488 kts 26°
2026-05-06 00:26 23.31592 101.35100 34247 ft 488 kts 26°
2026-05-06 00:27 23.34502 101.36994 34707 ft 487 kts 26°
2026-05-06 00:27 23.37408 101.38887 35176 ft 486 kts 26°
2026-05-06 00:27 23.40307 101.40774 35624 ft 485 kts 26°
2026-05-06 00:27 23.43203 101.42655 36058 ft 484 kts 26°
2026-05-06 00:28 23.46091 101.44532 36477 ft 484 kts 26°
2026-05-06 00:28 23.48984 101.46412 36876 ft 484 kts 26°
2026-05-06 00:28 23.51881 101.48297 37063 ft 485 kts 26°
2026-05-06 00:29 23.57657 101.52063 37106 ft 483 kts 26°
2026-05-06 00:29 23.63423 101.55833 37108 ft 483 kts 26°
2026-05-06 00:30 23.69182 101.59606 37110 ft 483 kts 26°
2026-05-06 00:30 23.74945 101.63362 37107 ft 483 kts 26°
2026-05-06 00:31 23.80708 101.67127 37111 ft 483 kts 26°
2026-05-06 00:31 23.86434 101.70884 37124 ft 483 kts 26°
2026-05-06 00:32 23.92230 101.74695 37126 ft 483 kts 26°
2026-05-06 00:32 23.97954 101.78459 37115 ft 483 kts 26°
2026-05-06 00:33 24.03755 101.82276 37135 ft 483 kts 26°
2026-05-06 00:33 24.09468 101.86062 37127 ft 483 kts 26°
2026-05-06 00:34 24.15214 101.89876 37132 ft 483 kts 26°
2026-05-06 00:34 24.20967 101.93690 37144 ft 483 kts 26°
2026-05-06 00:35 24.26719 101.97502 37145 ft 483 kts 26°
2026-05-06 00:35 24.32469 102.01316 37158 ft 483 kts 26°
2026-05-06 00:36 24.38226 102.05150 37169 ft 484 kts 26°
2026-05-06 00:36 24.43987 102.08988 37172 ft 484 kts 26°
2026-05-06 00:37 24.49741 102.12820 37183 ft 484 kts 26°
2026-05-06 00:37 24.55457 102.16628 37177 ft 484 kts 26°
2026-05-06 00:38 24.61207 102.20467 37187 ft 484 kts 26°
2026-05-06 00:38 24.66964 102.24321 37196 ft 485 kts 26°
2026-05-06 00:39 24.72719 102.28181 37204 ft 485 kts 26°
2026-05-06 00:39 24.78477 102.32037 37207 ft 484 kts 26°
2026-05-06 00:40 24.84235 102.35896 37215 ft 485 kts 26°
2026-05-06 00:40 24.89992 102.39753 37202 ft 483 kts 26°
2026-05-06 00:41 24.95731 102.43606 37196 ft 483 kts 26°
2026-05-06 00:41 25.01184 102.47970 37214 ft 494 kts 46°
2026-05-06 00:41 25.03121 102.51115 37217 ft 500 kts 63°
2026-05-06 00:42 25.04207 102.54750 37202 ft 502 kts 80°
2026-05-06 00:42 25.04365 102.58587 37073 ft 507 kts 96°
2026-05-06 00:42 25.03547 102.62403 36675 ft 516 kts 116°
2026-05-06 00:42 25.02010 102.65874 36873 ft 506 kts 119°
2026-05-06 00:43 25.00449 102.69341 37089 ft 504 kts 118°
2026-05-06 00:43 24.98916 102.72802 37259 ft 503 kts 118°
2026-05-06 00:43 24.97392 102.76269 37249 ft 502 kts 118°
2026-05-06 00:44 24.94352 102.83182 37250 ft 501 kts 118°
2026-05-06 00:44 24.91293 102.90087 37245 ft 501 kts 118°
2026-05-06 00:45 24.88262 102.96998 37243 ft 501 kts 118°
2026-05-06 00:45 24.85247 103.03917 37228 ft 501 kts 118°
2026-05-06 00:46 24.82226 103.10832 37215 ft 501 kts 118°
2026-05-06 00:46 24.79195 103.17743 37204 ft 501 kts 118°
2026-05-06 00:47 24.76156 103.24652 37199 ft 501 kts 118°
2026-05-06 00:47 24.73135 103.31504 37191 ft 501 kts 118°
2026-05-06 00:48 24.70088 103.38403 37191 ft 501 kts 118°
2026-05-06 00:48 24.67045 103.45296 37186 ft 501 kts 118°
2026-05-06 00:49 24.64001 103.52188 37181 ft 501 kts 118°
2026-05-06 00:49 24.60956 103.59067 37177 ft 500 kts 118°
2026-05-06 00:50 24.57899 103.65943 37161 ft 500 kts 118°
2026-05-06 00:50 24.54863 103.72819 37150 ft 501 kts 114°
2026-05-06 00:51 24.52891 103.80178 37135 ft 504 kts 104°
2026-05-06 00:51 24.51278 103.87668 37128 ft 504 kts 104°
2026-05-06 00:52 24.49633 103.95148 37117 ft 504 kts 105°
2026-05-06 00:52 24.47981 104.02637 37107 ft 505 kts 105°
2026-05-06 00:53 24.46348 104.10087 37098 ft 505 kts 105°
2026-05-06 00:53 24.44698 104.17586 37094 ft 506 kts 104°
2026-05-06 00:54 24.43043 104.25091 37086 ft 506 kts 104°
2026-05-06 00:54 24.41385 104.32588 37077 ft 505 kts 105°
2026-05-06 00:55 24.39719 104.40080 37068 ft 505 kts 105°
2026-05-06 00:55 24.38052 104.47556 37050 ft 504 kts 105°
2026-05-06 00:56 24.36388 104.55024 37049 ft 503 kts 105°
2026-05-06 00:56 24.34726 104.62482 37031 ft 503 kts 104°
2026-05-06 00:57 24.33065 104.69936 37017 ft 503 kts 104°
2026-05-06 00:57 24.31390 104.77374 37018 ft 503 kts 105°
2026-05-06 00:58 24.29801 104.84788 37010 ft 503 kts 103°
2026-05-06 00:58 24.28283 104.92269 37008 ft 503 kts 103°
2026-05-06 00:59 24.26761 104.99743 36999 ft 502 kts 103°
2026-05-06 00:59 24.25210 105.07209 36999 ft 502 kts 104°
2026-05-06 01:00 24.23641 105.14673 37000 ft 503 kts 104°
2026-05-06 01:00 24.22069 105.22136 37000 ft 502 kts 104°
2026-05-06 01:01 24.20360 105.29553 36995 ft 502 kts 106°
2026-05-06 01:01 24.18514 105.36937 36997 ft 503 kts 106°
2026-05-06 01:02 24.16673 105.44321 37009 ft 503 kts 106°
2026-05-06 01:02 24.14871 105.51711 37003 ft 502 kts 105°
2026-05-06 01:03 24.13085 105.59104 37006 ft 503 kts 105°
2026-05-06 01:03 24.11306 105.66446 37007 ft 502 kts 106°
2026-05-06 01:04 24.09549 105.73840 37008 ft 502 kts 104°
2026-05-06 01:04 24.08220 105.80443 37004 ft 502 kts 102°
2026-05-06 01:05 24.06840 105.87927 37005 ft 502 kts 102°
2026-05-06 01:05 24.05421 105.95355 37010 ft 502 kts 102°
2026-05-06 01:06 24.03926 106.02805 37006 ft 501 kts 103°
2026-05-06 01:06 24.02417 106.10245 37011 ft 501 kts 103°
2026-05-06 01:07 24.00919 106.17684 37008 ft 501 kts 103°
2026-05-06 01:07 23.99431 106.25121 37008 ft 501 kts 103°
2026-05-06 01:08 23.97936 106.32559 37013 ft 501 kts 103°
2026-05-06 01:08 23.96435 106.39986 37011 ft 500 kts 103°
2026-05-06 01:09 23.94936 106.47406 37013 ft 500 kts 103°
2026-05-06 01:09 23.93438 106.54773 37012 ft 499 kts 103°
2026-05-06 01:10 23.92191 106.62228 37015 ft 499 kts 93°
2026-05-06 01:10 23.91723 106.69801 37008 ft 500 kts 93°
2026-05-06 01:11 23.91231 106.77377 37010 ft 500 kts 94°
2026-05-06 01:11 23.90730 106.84951 37011 ft 500 kts 94°
2026-05-06 01:12 23.90228 106.92531 37012 ft 500 kts 94°
2026-05-06 01:12 23.89722 107.00107 37013 ft 500 kts 94°
2026-05-06 01:13 23.89209 107.07682 37012 ft 500 kts 94°
2026-05-06 01:13 23.88700 107.15261 37017 ft 500 kts 93°
2026-05-06 01:14 23.87933 107.26581 37022 ft 500 kts 94°
2026-05-06 01:14 23.87394 107.34161 37026 ft 500 kts 94°
2026-05-06 01:15 23.86844 107.41741 37033 ft 500 kts 94°
2026-05-06 01:15 23.86290 107.49322 37036 ft 500 kts 94°
2026-05-06 01:16 23.85743 107.56897 37045 ft 500 kts 94°
2026-05-06 01:16 23.85198 107.64473 37048 ft 500 kts 94°
2026-05-06 01:17 23.84638 107.72050 37051 ft 500 kts 94°
2026-05-06 01:17 23.84070 107.79616 37053 ft 500 kts 94°
2026-05-06 01:18 23.83521 107.87127 37049 ft 499 kts 93°
2026-05-06 01:18 23.83118 107.94686 37050 ft 498 kts 92°
2026-05-06 01:19 23.82794 108.02239 37049 ft 498 kts 91°
2026-05-06 01:19 23.82432 108.09781 37048 ft 497 kts 92°
2026-05-06 01:20 23.82033 108.17326 37048 ft 497 kts 92°
2026-05-06 01:20 23.81614 108.24865 37050 ft 498 kts 92°
2026-05-06 01:21 23.81189 108.32405 37050 ft 497 kts 92°
2026-05-06 01:21 23.80764 108.39943 37052 ft 497 kts 92°
2026-05-06 01:22 23.80330 108.47469 37054 ft 497 kts 92°
2026-05-06 01:22 23.79894 108.54995 37054 ft 497 kts 92°
2026-05-06 01:23 23.79462 108.62519 37054 ft 496 kts 92°
2026-05-06 01:23 23.79023 108.69989 37052 ft 496 kts 92°
2026-05-06 01:24 23.78580 108.77513 37052 ft 496 kts 92°
2026-05-06 01:24 23.78138 108.85031 37055 ft 497 kts 92°
2026-05-06 01:25 23.77687 108.92561 37056 ft 497 kts 93°
2026-05-06 01:25 23.77231 109.00094 37064 ft 497 kts 93°
2026-05-06 01:26 23.76767 109.07618 37066 ft 497 kts 93°
2026-05-06 01:26 23.76207 109.15125 37063 ft 497 kts 99°
2026-05-06 01:27 23.74756 109.22494 37062 ft 497 kts 102°
2026-05-06 01:27 23.73282 109.29857 37064 ft 497 kts 102°
2026-05-06 01:28 23.71803 109.37220 37065 ft 496 kts 102°
2026-05-06 01:28 23.70313 109.44572 37064 ft 496 kts 102°
2026-05-06 01:29 23.68818 109.51927 37066 ft 496 kts 102°
2026-05-06 01:29 23.67329 109.59224 37068 ft 496 kts 102°
2026-05-06 01:30 23.65832 109.66570 37071 ft 496 kts 102°
2026-05-06 01:30 23.64321 109.73914 37077 ft 496 kts 102°
2026-05-06 01:31 23.62800 109.81260 37079 ft 496 kts 102°
2026-05-06 01:31 23.61276 109.88596 37083 ft 496 kts 102°
2026-05-06 01:32 23.59749 109.95940 37087 ft 496 kts 102°
2026-05-06 01:32 23.58221 110.03280 37088 ft 497 kts 102°
2026-05-06 01:33 23.56683 110.10619 37093 ft 497 kts 102°
2026-05-06 01:33 23.55143 110.17956 37094 ft 497 kts 102°
2026-05-06 01:34 23.53608 110.25292 37097 ft 496 kts 102°
2026-05-06 01:34 23.52075 110.32629 37100 ft 496 kts 102°
2026-05-06 01:35 23.50551 110.39912 37094 ft 496 kts 102°
2026-05-06 01:35 23.49058 110.47230 37096 ft 496 kts 102°
2026-05-06 01:36 23.47577 110.54595 37093 ft 496 kts 102°
2026-05-06 01:36 23.46089 110.61931 37099 ft 496 kts 102°
2026-05-06 01:37 23.44591 110.69266 37097 ft 496 kts 102°
2026-05-06 01:37 23.43076 110.76592 37097 ft 496 kts 102°
2026-05-06 01:38 23.41526 110.83904 37102 ft 496 kts 102°
2026-05-06 01:38 23.39971 110.91210 37101 ft 495 kts 102°
2026-05-06 01:39 23.38419 110.98516 37100 ft 495 kts 102°
2026-05-06 01:39 23.36884 111.05772 37100 ft 495 kts 102°
2026-05-06 01:40 23.35339 111.13064 37102 ft 495 kts 102°
2026-05-06 01:40 23.33810 111.20361 37100 ft 494 kts 102°
2026-05-06 01:41 23.32346 111.27662 37102 ft 494 kts 102°
2026-05-06 01:41 23.30883 111.34969 37105 ft 494 kts 102°
2026-05-06 01:42 23.29466 111.41979 37104 ft 494 kts 102°
2026-05-06 01:42 23.27953 111.49270 37103 ft 494 kts 103°
2026-05-06 01:43 23.26393 111.56493 37100 ft 494 kts 103°
2026-05-06 01:43 23.24833 111.63761 37101 ft 493 kts 103°
2026-05-06 01:44 23.23300 111.71031 37103 ft 493 kts 102°
2026-05-06 01:44 23.21767 111.78306 37099 ft 494 kts 102°
2026-05-06 01:45 23.20222 111.85573 37101 ft 494 kts 102°
2026-05-06 01:45 23.18722 111.92791 36641 ft 484 kts 102°
2026-05-06 01:46 23.17994 111.96341 36209 ft 479 kts 102°
2026-05-06 01:46 23.17272 111.99856 35763 ft 474 kts 103°
2026-05-06 01:46 23.16552 112.03338 35330 ft 470 kts 103°
2026-05-06 01:46 23.15834 112.06792 34896 ft 466 kts 103°
2026-05-06 01:47 23.15116 112.10210 34464 ft 462 kts 104°
2026-05-06 01:47 23.14401 112.13602 34046 ft 459 kts 104°
2026-05-06 01:47 23.13690 112.16967 33573 ft 455 kts 104°
2026-05-06 01:47 23.12986 112.20301 33109 ft 451 kts 104°
2026-05-06 01:48 23.12275 112.23664 31820 ft 465 kts 104°
2026-05-06 01:48 23.11535 112.27162 30416 ft 484 kts 103°
2026-05-06 01:48 23.10776 112.30758 29251 ft 492 kts 103°
2026-05-06 01:48 23.10015 112.34390 28229 ft 494 kts 103°
2026-05-06 01:49 23.09258 112.38010 27545 ft 489 kts 103°
2026-05-06 01:49 23.08515 112.41541 26866 ft 483 kts 103°
2026-05-06 01:49 23.07766 112.45082 26185 ft 479 kts 103°
2026-05-06 01:49 23.07139 112.48613 25541 ft 474 kts 96°
2026-05-06 01:50 23.07004 112.52168 24920 ft 469 kts 89°
2026-05-06 01:50 23.07009 112.55700 24292 ft 466 kts 89°
2026-05-06 01:50 23.07010 112.59198 23694 ft 462 kts 89°
2026-05-06 01:50 23.07006 112.62668 23012 ft 458 kts 90°
2026-05-06 01:51 23.06998 112.66115 22341 ft 454 kts 90°
2026-05-06 01:51 23.06990 112.69524 21709 ft 450 kts 90°
2026-05-06 01:51 23.06981 112.72907 21099 ft 446 kts 90°
2026-05-06 01:51 23.06967 112.76264 20494 ft 443 kts 90°
2026-05-06 01:52 23.06943 112.79591 19900 ft 439 kts 90°
2026-05-06 01:52 23.06914 112.82895 19323 ft 436 kts 90°
2026-05-06 01:52 23.06883 112.86178 18766 ft 433 kts 90°
2026-05-06 01:52 23.06851 112.89435 18221 ft 430 kts 90°
2026-05-06 01:53 23.06820 112.92672 17613 ft 427 kts 90°
2026-05-06 01:53 23.06791 112.95887 17041 ft 424 kts 90°
2026-05-06 01:53 23.06762 112.99032 16500 ft 420 kts 90°
2026-05-06 01:53 23.06731 113.02190 15976 ft 417 kts 90°
2026-05-06 01:54 23.06768 113.05326 15456 ft 413 kts 83°
2026-05-06 01:54 23.07556 113.08288 14990 ft 407 kts 62°
2026-05-06 01:54 23.09200 113.10728 14500 ft 398 kts 40°
2026-05-06 01:54 23.11458 113.12335 14311 ft 380 kts 20°
2026-05-06 01:55 23.13860 113.13093 14188 ft 363 kts
2026-05-06 01:55 23.16295 113.13641 14083 ft 350 kts
2026-05-06 01:55 23.18644 113.14138 13977 ft 339 kts
2026-05-06 01:55 23.20928 113.14607 13866 ft 328 kts
2026-05-06 01:56 23.23140 113.15064 13733 ft 319 kts
2026-05-06 01:56 23.25305 113.15516 13483 ft 315 kts
2026-05-06 01:56 23.27452 113.15967 13179 ft 313 kts
2026-05-06 01:56 23.29590 113.16415 12857 ft 312 kts
2026-05-06 01:57 23.31715 113.16861 12526 ft 311 kts
2026-05-06 01:57 23.33835 113.17304 12194 ft 309 kts
2026-05-06 01:57 23.35943 113.17745 11858 ft 308 kts
2026-05-06 01:57 23.38042 113.18185 11532 ft 306 kts
2026-05-06 01:58 23.40128 113.18627 11198 ft 305 kts
2026-05-06 01:58 23.42207 113.19067 10866 ft 304 kts
2026-05-06 01:58 23.44276 113.19504 10535 ft 302 kts
2026-05-06 01:58 23.46307 113.19931 10213 ft 301 kts
2026-05-06 01:59 23.48350 113.20352 9882 ft 299 kts
2026-05-06 01:59 23.50394 113.20773 9496 ft 298 kts
2026-05-06 01:59 23.52439 113.21191 9099 ft 297 kts
2026-05-06 01:59 23.54466 113.21606 8706 ft 296 kts
2026-05-06 02:00 23.56488 113.22023 8305 ft 295 kts
2026-05-06 02:00 23.58497 113.22440 7907 ft 294 kts
2026-05-06 02:00 23.60487 113.22854 7724 ft 285 kts
2026-05-06 02:00 23.62401 113.23253 7590 ft 274 kts
2026-05-06 02:01 23.64237 113.23635 7470 ft 263 kts
2026-05-06 02:01 23.66000 113.24001 7340 ft 253 kts
2026-05-06 02:01 23.67701 113.24355 7227 ft 245 kts
2026-05-06 02:01 23.69345 113.24709 7102 ft 237 kts
2026-05-06 02:02 23.70938 113.25057 6983 ft 230 kts
2026-05-06 02:02 23.72493 113.25397 6856 ft 225 kts
2026-05-06 02:02 23.74012 113.25730 6737 ft 220 kts
2026-05-06 02:02 23.75492 113.26055 6619 ft 214 kts
2026-05-06 02:03 23.76939 113.26373 6490 ft 210 kts
2026-05-06 02:03 23.78365 113.26686 6303 ft 209 kts
2026-05-06 02:03 23.79758 113.27123 6079 ft 210 kts 28°
2026-05-06 02:03 23.80842 113.28149 5928 ft 207 kts 58°
2026-05-06 02:04 23.81381 113.29560 5858 ft 203 kts 85°
2026-05-06 02:04 23.81303 113.31073 5866 ft 198 kts 109°
2026-05-06 02:04 23.80956 113.32536 5868 ft 200 kts 108°
2026-05-06 02:04 23.80615 113.34004 5866 ft 200 kts 108°
2026-05-06 02:05 23.80276 113.35475 5868 ft 200 kts 108°
2026-05-06 02:05 23.79938 113.36944 5865 ft 199 kts 108°
2026-05-06 02:05 23.79598 113.38409 5865 ft 199 kts 108°
2026-05-06 02:05 23.79092 113.39791 5863 ft 193 kts 131°
2026-05-06 02:06 23.78114 113.40739 5874 ft 187 kts 158°
2026-05-06 02:06 23.76888 113.41048 5859 ft 179 kts 190°
2026-05-06 02:06 23.75672 113.40800 5672 ft 178 kts 194°
2026-05-06 02:06 23.74464 113.40510 5452 ft 178 kts 194°
2026-05-06 02:07 23.72353 113.39953 5099 ft 178 kts 195°
2026-05-06 02:07 23.71174 113.39635 4956 ft 175 kts 196°
2026-05-06 02:07 23.70036 113.39327 4885 ft 162 kts 196°
2026-05-06 02:08 23.68980 113.39041 4795 ft 153 kts 196°
2026-05-06 02:08 23.67967 113.38766 4666 ft 147 kts 195°
2026-05-06 02:08 23.66966 113.38494 4319 ft 156 kts 195°
2026-05-06 02:08 23.65854 113.38191 3780 ft 174 kts 194°
2026-05-06 02:09 23.64681 113.37873 3589 ft 169 kts 194°
2026-05-06 02:09 23.63565 113.37571 3460 ft 162 kts 194°
2026-05-06 02:09 23.62494 113.37280 3333 ft 156 kts 194°
2026-05-06 02:09 23.61459 113.37000 3209 ft 151 kts 193°
2026-05-06 02:10 23.60449 113.36726 3082 ft 148 kts 193°
2026-05-06 02:10 23.59464 113.36459 2957 ft 144 kts 193°
2026-05-06 02:10 23.58508 113.36200 2817 ft 138 kts 193°
2026-05-06 02:10 23.57588 113.35951 2667 ft 135 kts 193°
2026-05-06 02:11 23.56678 113.35682 2604 ft 136 kts 193°
2026-05-06 02:11 23.55767 113.35405 2542 ft 133 kts 190°
2026-05-06 02:11 23.54875 113.35188 2582 ft 131 kts 192°
2026-05-06 02:11 23.54002 113.34965 2560 ft 129 kts 192°
2026-05-06 02:12 23.53129 113.34735 2451 ft 128 kts 193°
2026-05-06 02:12 23.52258 113.34503 2352 ft 130 kts 192°
2026-05-06 02:12 23.51386 113.34269 2195 ft 129 kts 192°
2026-05-06 02:12 23.50515 113.34034 2028 ft 128 kts 192°
2026-05-06 02:13 23.49647 113.33800 1871 ft 129 kts 193°
2026-05-06 02:13 23.48789 113.33568 1703 ft 129 kts 192°
2026-05-06 02:13 23.47922 113.33333 1516 ft 128 kts 193°
2026-05-06 02:13 23.47059 113.33100 1365 ft 128 kts 193°
2026-05-06 02:14 23.46197 113.32867 1194 ft 128 kts 192°
2026-05-06 02:14 23.45331 113.32633 1027 ft 128 kts 192°
2026-05-06 02:14 23.44459 113.32397 855 ft 131 kts 192°
2026-05-06 02:14 23.43571 113.32157 686 ft 132 kts 191°
2026-05-06 02:15 23.42682 113.31917 499 ft 132 kts 191°
2026-05-06 02:15 23.41790 113.31675 335 ft 132 kts 192°
2026-05-06 02:15 23.40905 113.31436 149 ft 131 kts 192°
2026-05-06 02:15 23.40045 113.31209 54 ft 114 kts 193°
2026-05-06 02:16 23.39448 113.31043 54 ft 64 kts 193°
2026-05-06 02:16 23.39183 113.30968 56 ft 21 kts 194°
2026-05-06 02:16 23.39046 113.30915 52 ft 22 kts 211°
2026-05-06 02:16 23.38921 113.30808 58 ft 24 kts 222°
2026-05-06 02:17 23.38820 113.30701 56 ft 14 kts 240°
2026-05-06 02:17 23.38831 113.30622 58 ft 10 kts 283°
2026-05-06 02:17 23.38847 113.30552 52 ft 9 kts 284°
2026-05-06 02:17 23.38863 113.30489 53 ft 8 kts 285°
2026-05-06 02:18 23.38877 113.30433 56 ft 7 kts 284°
2026-05-06 02:18 23.38894 113.30386 52 ft 6 kts 302°
2026-05-06 02:18 23.38885 113.30361 54 ft 3 kts 236°
2026-05-06 02:18 23.38877 113.30342 57 ft 3 kts 245°
2026-05-06 02:19 23.38869 113.30329 56 ft 1 kts 230°
2026-05-06 02:19 23.38862 113.30322 53 ft 1 kts 223°
2026-05-06 02:19 23.38847 113.30311 53 ft 5 kts 215°
2026-05-06 02:19 23.38836 113.30303 53 ft 0 kts 216°
2026-05-06 02:20 23.38840 113.30306 53 ft 2 kts 216°
2026-05-06 02:21 23.38849 113.30314 51 ft 2 kts 231°
2026-05-06 02:21 23.38850 113.30315 52 ft 0 kts 231°
2026-05-06 02:21 23.38847 113.30311 53 ft 0 kts 231°
2026-05-06 02:21 23.38844 113.30307 54 ft 0 kts 231°